Paso Robles, CA

9:42 AM PDT on May 25, 2018 (GMT -0700)
Paso Robles Municipal

Weather History for KPRB - March, 2012

Change the Weather History Date:

Sunday, March 11, 2012

  Actual Average Record
Temperature  
Mean Temperature 51 °F 53 °F  
Max Temperature 61 °F 66 °F 83 °F (2007)
Min Temperature 40 °F 40 °F 24 °F (1977)
Degree Days  
Heating Degree Days 14 12  
Month to date heating degree days 149 138  
Since 1 July heating degree days 2194 2231  
Cooling Degree Days 0 0  
Month to date cooling degree days 0 0  
Year to date cooling degree days 0 0  
Growing Degree Days 2 (Base 50)    
Moisture  
Dew Point 41 °F    
Average Humidity 69    
Maximum Humidity 86    
Minimum Humidity 51    
Precipitation  
Precipitation 0.00 in 0.10 in 1.63 in (1967)
Month to date precipitation T 1.07  
Year to date precipitation 1.63 6.41  
Since 1 July precipitation 4.44  
Sea Level Pressure  
Sea Level Pressure 30.04 in    
Wind  
Wind Speed 5 mph (West)    
Max Wind Speed 17 mph    
Max Gust Speed 20 mph    
T = Trace of Precipitation, MM = Missing Value Source: NWS Daily Summary

Daily Weather History Graph

Daily Weather History Graph

Search for Another Location

Airport or City:

Astronomy

Mar. 11, 2012 Rise Set
Actual Time 7:18 AM PDT 7:07 PM PDT
Civil Twilight 6:52 AM PDT 7:32 PM PDT
Nautical Twilight 6:23 AM PDT 8:02 PM PDT
Astronomical Twilight 5:53 AM PDT 8:31 PM PDT
Moon 11:25 PM PDT (3/11) 9:07 AM PDT (3/11)
Length of Visible Light 12h 39m
Length of Day
11h 49m
Waning Gibbous, 84% of the Moon is Illuminated
Mar 11
Waning Gibbous
Mar 14
Last Quarter
Mar 22
New
Mar 30
First Quarter
Apr 6
Full

Hourly Weather History & Observations

Time (PDT) Temp. Windchill Dew Point Humidity Pressure Visibility Wind Dir Wind Speed Gust Speed Precip Events Conditions
12:53 AM 48.0 °F - 43.0 °F 83% 30.01 in - WSW 4.6 mph - N/A   Overcast
1:53 AM 46.9 °F - 42.1 °F 83% 30.02 in - West 4.6 mph - N/A   Overcast
3:53 AM 46.9 °F - 42.1 °F 83% 30.01 in - WNW 4.6 mph - N/A   Overcast
5:53 AM 46.0 °F 43.9 °F 42.1 °F 86% 30.02 in - WNW 4.6 mph - N/A   Overcast
6:53 AM 46.0 °F 43.9 °F 42.1 °F 86% 30.03 in - NNW 4.6 mph - N/A   Overcast
7:53 AM 46.0 °F 41.9 °F 41.0 °F 83% 30.04 in - NW 8.1 mph - N/A   Overcast
8:53 AM 46.0 °F - 42.1 °F 86% 30.06 in - Calm Calm - N/A   Overcast
9:53 AM 46.0 °F 44.8 °F 42.1 °F 86% 30.08 in - North 3.5 mph - N/A   Overcast
10:53 AM 48.0 °F - 41.0 °F 77% 30.09 in - Calm Calm - N/A   Overcast
11:01 AM 48.2 °F - 41.0 °F 76% 30.08 in - Calm Calm - N/A   Overcast
11:53 AM 48.9 °F - 41.0 °F 74% 30.09 in - North 3.5 mph - N/A   Overcast
12:22 PM 51.8 °F - 41.0 °F 67% 30.08 in - Variable 3.5 mph - N/A   Overcast
12:53 PM 51.1 °F - 42.1 °F 71% 30.08 in - Variable 4.6 mph - N/A   Overcast
1:53 PM 53.1 °F - 42.1 °F 66% 30.06 in - Variable 4.6 mph - N/A   Mostly Cloudy
2:04 PM 55.4 °F - 42.8 °F 63% 30.05 in - Variable 3.5 mph - N/A   Scattered Clouds
2:53 PM 57.0 °F - 41.0 °F 55% 30.02 in - Variable 4.6 mph - N/A   Clear
3:53 PM 59.0 °F - 42.1 °F 53% 30.01 in - Calm Calm - N/A   Clear
4:53 PM 61.0 °F - 42.1 °F 50% 29.99 in - WSW 5.8 mph - N/A   Clear
5:53 PM 59.0 °F - 43.0 °F 55% 29.98 in - SSW 12.7 mph - N/A   Clear
6:53 PM 53.1 °F - 42.1 °F 66% 29.99 in - SSW 12.7 mph - N/A   Clear
7:53 PM 50.0 °F - 42.1 °F 74% 30.00 in - South 10.4 mph - N/A   Clear
8:53 PM 48.0 °F - 42.1 °F 80% 30.01 in - SSW 6.9 mph - N/A   Clear
9:53 PM 46.9 °F - 41.0 °F 80% 30.02 in - Calm Calm - N/A   Clear
10:53 PM 44.1 °F 41.5 °F 39.9 °F 85% 30.04 in - South 4.6 mph - N/A   Clear
11:53 PM 42.1 °F - 37.9 °F 85% 30.04 in - Calm Calm - N/A   Clear
12:53 AM 42.1 °F - 37.9 °F 85% 30.04 in - Calm Calm - N/A   Clear